DW2770 Cefalu IT current weather conditions

sailwx.info

Wind from 068 at 6 knots gusting 6

Air temperature 27.8° C
Dewpoint 21.6° C

Last reported at 2019-Aug-19 11:00 UTC.
Time now 2019-Aug-19 12:10 UTC

Location: N 38°02' E 014°02'.
View on Google Maps.

See reports from other nearby stations

  
Tides and Currents Weather Stations Pressure Air Temp Water Temp Dewpoint Dewpoint Depression Visibility Wind Speed Wind Dir Waves Ship Positions
date/time (UTC)wind fromknots sea level pressurealtimeterstation pressurevisibilityair tempwater tempwave heightnotes
2019-Aug-19 11:00 068 6 gusting 6 27.8
2019-Aug-19 10:50 045 4 gusting 6 27.2
2019-Aug-19 10:40 043 4 gusting 6 27.2
2019-Aug-19 10:30 068 4 gusting 6 27.2
2019-Aug-19 10:10 022 2 gusting 6 27.2
2019-Aug-19 10:00 112 5 gusting 6 27.2
2019-Aug-19 09:40 068 5 gusting 7 27.2
2019-Aug-19 09:10 080 5 gusting 6 27.2
2019-Aug-19 08:40 031 4 gusting 6 27.2
2019-Aug-19 08:30 045 2 gusting 5 27.2
2019-Aug-19 07:50 045 1 gusting 2 26.7
2019-Aug-19 07:10 052 4 gusting 4 26.7
2019-Aug-19 07:00 068 2 gusting 2 26.7
2019-Aug-19 06:50 068 1 gusting 2 26.7
2019-Aug-19 06:00 068 0 gusting 1 26.7
2019-Aug-19 05:50 068 0 gusting 1 26.7
2019-Aug-19 05:20 158 25.0
2019-Aug-19 05:00 158 24.4
2019-Aug-19 03:50 158 1 gusting 2 23.9
2019-Aug-19 03:40 158 2 gusting 4 23.9
2019-Aug-19 03:00 158 1 gusting 2 23.9
2019-Aug-19 02:50 158 1 gusting 1 23.9
2019-Aug-19 02:40 137 1 gusting 2 23.9
2019-Aug-19 02:30 158 2 gusting 2 23.9
2019-Aug-19 02:20 158 0 gusting 1 23.9
2019-Aug-19 02:10 158 0 gusting 4 23.9
2019-Aug-19 01:50 158 4 gusting 4 23.9
2019-Aug-19 01:20 180 2 gusting 4 24.4
2019-Aug-19 01:10 180 3 gusting 4 24.4
2019-Aug-19 00:40 180 2 gusting 2 24.4
2019-Aug-19 00:30 129 1 gusting 2 24.4
2019-Aug-19 00:20 180 2 gusting 2 24.4
2019-Aug-19 00:10 158 2 gusting 4 24.4
2019-Aug-19 00:00 180 1 gusting 4 24.4
2019-Aug-18 23:50 158 2 gusting 2 24.4
2019-Aug-18 23:40 180 2 gusting 5 24.4
2019-Aug-18 23:30 169 4 gusting 4 24.4
2019-Aug-18 23:10 180 4 gusting 5 25.0
2019-Aug-18 23:00 180 2 gusting 5 25.0
2019-Aug-18 22:50 158 4 gusting 4 25.0
2019-Aug-18 22:40 135 2 gusting 4 25.0
2019-Aug-18 22:30 180 2 gusting 6 25.0
2019-Aug-18 22:10 135 5 gusting 6 25.0
2019-Aug-18 22:00 180 5 gusting 6 25.0
2019-Aug-18 21:50 202 3 gusting 4 25.0
2019-Aug-18 20:50 158 2 gusting 4 25.0
2019-Aug-18 20:40 158 2 gusting 4 25.6
2019-Aug-18 20:30 180 1 gusting 4 25.6
2019-Aug-18 20:20 158 2 gusting 2 25.6
2019-Aug-18 20:10 180 2 gusting 2 25.6
2019-Aug-18 20:00 173 25.6
2019-Aug-18 19:50 179 0 gusting 1 25.6
2019-Aug-18 19:40 022 25.6
2019-Aug-18 19:20 068 26.1
2019-Aug-18 19:10 090 0 gusting 1 26.1
2019-Aug-18 18:50 068 0 gusting 2 26.1
2019-Aug-18 18:40 090 2 gusting 2 26.1
2019-Aug-18 18:20 068 1 gusting 2 25.6
2019-Aug-18 18:10 068 1 gusting 2 26.1
2019-Aug-18 17:50 069 1 gusting 4 26.1
2019-Aug-18 17:30 073 2 gusting 5 26.1
2019-Aug-18 17:10 090 3 gusting 6 26.7
2019-Aug-18 17:00 086 4 gusting 6 26.7
2019-Aug-18 16:40 090 7 gusting 8 26.7
2019-Aug-18 16:30 078 3 gusting 7 26.7
2019-Aug-18 16:10 068 2 gusting 4 27.2
2019-Aug-18 16:00 106 4 gusting 6 27.2
2019-Aug-18 15:50 090 6 gusting 6 27.2
2019-Aug-18 15:40 112 5 gusting 7 27.2
2019-Aug-18 15:30 068 7 gusting 7 27.2
2019-Aug-18 15:00 071 5 gusting 8 27.2
2019-Aug-18 14:50 038 4 gusting 6 27.2
2019-Aug-18 14:40 090 4 gusting 8 27.2
2019-Aug-18 14:10 045 5 gusting 7 27.8
2019-Aug-18 14:00 071 5 gusting 7 27.8
2019-Aug-18 13:50 085 7 gusting 7 27.8
2019-Aug-18 13:20 112 3 gusting 6 27.8
2019-Aug-18 13:10 090 4 gusting 6 28.3
2019-Aug-18 12:40 068 6 gusting 7 27.8
2019-Aug-18 01:50 158 0 gusting 0 22.2
2019-Aug-18 01:20 270 0 gusting 1 22.8
2019-Aug-18 01:10 129 22.8
2019-Aug-18 00:50 090 0 gusting 2 22.8
2019-Aug-18 00:30 090 0 gusting 1 22.8
2019-Aug-18 00:10 196 4 gusting 4 23.3
2019-Aug-18 00:00 158 2 gusting 6 23.3
2019-Aug-17 23:50 180 4 gusting 5 23.3
2019-Aug-17 23:10 163 2 gusting 2 23.3
2019-Aug-17 22:50 158 1 gusting 2 23.3
2019-Aug-17 22:20 180 3 gusting 4 23.3
2019-Aug-17 22:10 158 3 gusting 4 23.3
2019-Aug-17 22:00 180 0 gusting 2 23.3
2019-Aug-17 21:40 145 2 gusting 2 23.3
2019-Aug-17 21:30 158 2 gusting 2 23.3
2019-Aug-17 21:20 158 1 gusting 1 23.9
2019-Aug-17 21:00 180 3 gusting 4 23.3
2019-Aug-17 20:50 135 0 gusting 2 23.9
2019-Aug-17 20:30 068 23.9
2019-Aug-17 20:20 112 0 gusting 2 23.9
2019-Aug-17 20:10 068 0 gusting 0 23.9
2019-Aug-17 20:00 223 23.9
2019-Aug-17 19:50 112 0 gusting 2 24.4
2019-Aug-17 19:30 158 24.4
2019-Aug-17 19:20 068 0 gusting 0 24.4
2019-Aug-17 19:10 171 0 gusting 0 24.4
2019-Aug-17 19:00 107 24.4
2019-Aug-17 18:50 090 24.4
2019-Aug-17 18:30 068 25.0
2019-Aug-17 18:00 045 25.6
2019-Aug-17 17:50 068 25.6
2019-Aug-17 17:40 068 0 gusting 2 25.6
2019-Aug-17 17:30 068 2 gusting 2 26.1
2019-Aug-17 17:20 068 1 gusting 2 26.1
2019-Aug-17 17:10 074 2 gusting 2 26.7
2019-Aug-17 17:00 068 0 gusting 2 26.1
2019-Aug-17 16:50 068 2 gusting 4 26.7
2019-Aug-17 16:30 048 4 gusting 5 26.7
2019-Aug-17 16:10 068 1 gusting 2 26.7
2019-Aug-17 15:40 074 3 gusting 5 27.2
2019-Aug-17 15:20 068 4 gusting 6 26.7
2019-Aug-17 15:10 063 2 gusting 6 27.2
2019-Aug-17 15:00 045 5 gusting 6 27.2
2019-Aug-17 14:40 045 6 gusting 6 26.7
2019-Aug-17 14:30 067 2 gusting 5 26.7
2019-Aug-17 14:20 045 4 gusting 6 27.2
2019-Aug-17 14:10 051 1 gusting 6 27.2
2019-Aug-17 13:50 27.2
2019-Aug-17 13:40 074 1 gusting 5 27.2
2019-Aug-17 13:30 053 5 gusting 6 27.8
2019-Aug-17 13:20 068 3 gusting 6 27.2
2019-Aug-17 13:00 068 6 gusting 6 27.2
2019-Aug-17 12:50 068 5 gusting 6 27.2
2019-Aug-17 12:40 045 2 gusting 5 27.2
2019-Aug-17 12:30 028 2 gusting 4 27.2
2019-Aug-17 12:20 068 4 gusting 4 27.2